This demonstration page uses our WeatherBlox Daily Observations layout. Learn more.

Hourly Observations for June 30, 2019

Temp ( °F °C ) Dew Point ( °F °C ) Humidity (%) Winds ( mph kmh ) Pressure ( in mb ) Visibility ( mi km ) Precip ( " mm )
12:15 am 00:15 Partly Cloudy 72 22 68 20 88 88 W 9 15 30 1016 10 16.09344 0 0
12:35 am 00:35 Clear 70 21 70 21 100 100 WSW 6 9 30 1016 10 16.09344 0 0
12:55 am 00:55 Clear 70 21 70 21 100 100 W 7 11 30 1016 10 16.09344 0 0
1:15 am 01:15 Mostly Cloudy 72 22 68 20 88 88 NNE 8 13 30 1016 10 16.09344 0 0
1:35 am 01:35 Cloudy 70 21 70 21 100 100 NNE 8 13 30 1016 10 16.09344 0.02 0.508
1:55 am 01:55 Partly Cloudy 70 21 70 21 100 100 NNW 6 9 30 1016 10 16.09344 0.02 0.508
2:15 am 02:15 Partly Cloudy 70 21 70 21 100 100 Calm 29.97 1015 10 16.09344 0 0
2:35 am 02:35 Cloudy 70 21 70 21 100 100 W 5 7 29.97 1015 10 16.09344 0 0
2:55 am 02:55 Mostly Cloudy 70 21 70 21 100 100 WNW 5 7 29.94 1014 10 16.09344 0 0
3:15 am 03:15 Mostly Cloudy 70 21 68 20 94 94 WNW 9 15 29.94 1014 7 11.265408 0.03 0.762
3:35 am 03:35 Cloudy 70 21 70 21 100 100 W 10 17 29.94 1014 7 11.265408 0.06 1.524
3:55 am 03:55 Cloudy 70 21 68 20 94 94 WNW 10 17 29.94 1014 10 16.09344 0.06 1.524
4:15 am 04:15 Partly Cloudy 70 21 68 20 94 94 WNW 6 9 29.91 1013 10 16.09344 0 0
4:35 am 04:35 Clear 70 21 68 20 94 94 Calm 29.91 1013 10 16.09344 0 0
4:55 am 04:55 Clear 72 22 68 20 88 88 WNW 8 13 29.91 1013 10 16.09344 0 0
5:15 am 05:15 Clear 72 22 68 20 88 88 NW 12 19 29.91 1013 10 16.09344 0 0
5:35 am 05:35 Clear 72 22 68 20 88 88 NW 6 9 29.91 1013 10 16.09344 0 0
5:55 am 05:55 Sunny 73 23 68 20 83 83 NW 13 20 29.91 1013 10 16.09344 0 0
6:15 am 06:15 Sunny 73 23 68 20 83 83 NW 14 22 29.91 1013 10 16.09344 0 0
6:35 am 06:35 Sunny 73 23 68 20 83 83 NW 15 24 29.91 1013 10 16.09344 0 0
6:55 am 06:55 Sunny 73 23 68 20 83 83 NNW 13 20 29.91 1013 10 16.09344 0 0
7:15 am 07:15 Sunny 73 23 68 20 83 83 NW 13 20 29.91 1013 10 16.09344 0 0
7:35 am 07:35 Sunny 75 24 70 21 83 83 NW 14 22 29.91 1013 10 16.09344 0 0
7:55 am 07:55 Sunny 77 25 68 20 74 74 NW 14 22 29.94 1014 10 16.09344 0 0
8:15 am 08:15 Sunny 77 25 70 21 79 79 NW 16 26 29.94 1014 10 16.09344 0 0
8:35 am 08:35 Sunny 79 26 70 21 74 74 NW 15 24 29.94 1014 10 16.09344 0 0
8:55 am 08:55 Sunny 79 26 70 21 74 74 NNW 17 28 29.94 1014 10 16.09344 0 0
9:15 am 09:15 Sunny 81 27 72 22 74 74 NNW 13 20 29.94 1014 10 16.09344 0 0
9:35 am 09:35 Sunny 81 27 70 21 70 70 NNW 13 20 29.94 1014 10 16.09344 0 0
9:55 am 09:55 Sunny 81 27 70 21 70 70 NNW 13 20 29.94 1014 10 16.09344 0 0
10:15 am 10:15 Sunny 82 28 68 20 62 62 NNW 12 19 29.94 1014 10 16.09344 0 0
10:35 am 10:35 Sunny 82 28 68 20 62 62 NNW 12 19 29.94 1014 10 16.09344 0 0
10:55 am 10:55 Sunny 84 29 64 18 51 51 NNW 14 22 29.94 1014 10 16.09344 0 0
11:15 am 11:15 Sunny 86 30 63 17 46 46 NNW 13 20 29.88 1012 10 16.09344 0 0
11:35 am 11:35 Sunny 86 30 63 17 46 46 NW 15 24 29.88 1012 10 16.09344 0 0
11:55 am 11:55 Sunny 86 30 63 17 46 46 NW 16 26 29.88 1012 10 16.09344 0 0
12:15 pm 12:15 Sunny 86 30 63 17 46 46 N 16 26 29.88 1012 10 16.09344 0 0
12:35 pm 12:35 Partly Cloudy 88 31 63 17 43 43 NNW 20 31 29.88 1012 10 16.09344 0 0
12:55 pm 12:55 Partly Cloudy 88 31 63 17 43 43 NNW 15 24 29.88 1012 10 16.09344 0 0
1:15 pm 13:15 Partly Cloudy 88 31 64 18 46 46 WNW 15 24 29.85 1011 10 16.09344 0 0
1:35 pm 13:35 Partly Cloudy 88 31 64 18 46 46 NW 16 26 29.85 1011 10 16.09344 0 0
1:55 pm 13:55 Sunny 90 32 63 17 41 41 NNW 23 37 29.85 1011 10 16.09344 0 0
2:15 pm 14:15 Sunny 90 32 61 16 38 38 NNW 17 28 29.85 1011 10 16.09344 0 0
2:55 pm 14:55 Partly Cloudy 90 32 59 15 36 36 NNW 22 35 29.83 1010 10 16.09344 0 0
3:15 pm 15:15 Sunny 90 32 61 16 38 38 NNW 18 30 29.83 1010 10 16.09344 0 0
3:35 pm 15:35 Partly Cloudy 91 33 61 16 36 36 N 18 30 29.83 1010 10 16.09344 0 0
3:55 pm 15:55 Partly Cloudy 90 32 61 16 38 38 NNW 21 33 29.83 1010 10 16.09344 0 0
4:15 pm 16:15 Partly Cloudy 90 32 59 15 36 36 NNW 15 24 29.83 1010 10 16.09344 0 0
4:35 pm 16:35 Partly Cloudy 90 32 61 16 38 38 N 15 24 29.83 1010 10 16.09344 0 0
4:55 pm 16:55 Partly Cloudy 90 32 59 15 36 36 N 15 24 29.8 1009 10 16.09344 0 0
5:15 pm 17:15 Sunny 90 32 59 15 36 36 N 12 19 29.83 1010 10 16.09344 0 0
5:35 pm 17:35 Partly Cloudy 90 32 61 16 38 38 NNW 13 20 29.8 1009 10 16.09344 0 0
5:55 pm 17:55 Partly Cloudy 90 32 61 16 38 38 NNW 16 26 29.8 1009 10 16.09344 0 0
6:15 pm 18:15 Sunny 88 31 59 15 38 38 NNW 14 22 29.8 1009 10 16.09344 0 0
6:35 pm 18:35 Sunny 88 31 59 15 38 38 N 17 28 29.8 1009 10 16.09344 0 0
6:55 pm 18:55 Sunny 88 31 59 15 38 38 N 15 24 29.83 1010 10 16.09344 0 0
7:15 pm 19:15 Sunny 88 31 59 15 38 38 N 17 28 29.83 1010 10 16.09344 0 0
7:35 pm 19:35 Sunny 86 30 59 15 40 40 N 13 20 29.83 1010 10 16.09344 0 0
8:15 pm 20:15 Sunny 82 28 59 15 45 45 N 3 6 29.88 1012 10 16.09344 0 0
8:35 pm 20:35 Sunny 82 28 61 16 48 48 N 7 11 29.88 1012 10 16.09344 0 0
8:55 pm 20:55 Clear 81 27 61 16 51 51 NNW 3 6 29.88 1012 10 16.09344 0 0
9:15 pm 21:15 Clear 79 26 59 15 51 51 NNW 8 13 29.88 1012 10 16.09344 0 0
9:35 pm 21:35 Clear 79 26 59 15 51 51 NNW 8 13 29.91 1013 10 16.09344 0 0
9:55 pm 21:55 Clear 79 26 59 15 51 51 N 6 9 29.91 1013 10 16.09344 0 0
10:15 pm 22:15 Clear 79 26 59 15 51 51 NNW 6 9 29.94 1014 10 16.09344 0 0
10:35 pm 22:35 Clear 77 25 59 15 54 54 NNW 6 9 29.94 1014 10 16.09344 0 0
10:55 pm 22:55 Clear 77 25 59 15 54 54 NNW 7 11 29.94 1014 10 16.09344 0 0
11:15 pm 23:15 Clear 75 24 59 15 57 57 NNW 7 11 29.94 1014 10 16.09344 0 0
11:35 pm 23:35 Clear 73 23 59 15 61 61 NNW 6 9 29.94 1014 10 16.09344 0 0
11:55 pm 23:55 Clear 73 23 59 15 61 61 NNW 5 7 29.94 1014 10 16.09344 0 0

Powered by AerisWeather